Time,TemperatureF,DewpointF,PressureIn,WindDirection,WindDirectionDegrees,WindSpeedMPH,WindSpeedGustMPH,Humidity,HourlyPrecipIn,Conditions,Clouds,dailyrainin,SoftwareType,DateUTC
2013-02-04 00:05:00,15.2,13.3,30.14,WNW,296,0.0,10.0,92,0.00,,,0.00,Wunderground v.1.15,2013-02-04 05:05:00,
2013-02-04 00:10:00,15.1,13.4,30.15,WNW,296,0.0,10.0,93,0.00,,,0.00,Wunderground v.1.15,2013-02-04 05:10:00,
2013-02-04 00:15:00,15.0,13.3,30.15,WNW,297,0.0,10.0,93,0.00,,,0.00,Wunderground v.1.15,2013-02-04 05:15:00,
2013-02-04 00:20:00,14.9,13.2,30.14,WNW,296,0.0,10.0,93,0.00,,,0.00,Wunderground v.1.15,2013-02-04 05:20:00,
2013-02-04 00:30:00,14.8,13.1,30.14,WNW,297,0.0,10.0,93,0.00,,,0.00,Wunderground v.1.15,2013-02-04 05:30:00,
2013-02-04 00:35:00,14.7,13.0,30.14,WNW,295,0.0,10.0,93,0.00,,,0.00,Wunderground v.1.15,2013-02-04 05:35:00,
2013-02-04 00:40:00,14.5,12.6,30.14,WNW,296,0.0,10.0,92,0.00,,,0.00,Wunderground v.1.15,2013-02-04 05:40:00,
2013-02-04 00:45:00,14.4,12.5,30.14,WNW,296,0.0,10.0,92,0.00,,,0.00,Wunderground v.1.15,2013-02-04 05:45:00,
2013-02-04 00:55:00,14.3,12.6,30.14,WNW,295,0.0,10.0,93,0.00,,,0.00,Wunderground v.1.15,2013-02-04 05:55:00,
2013-02-04 01:05:00,14.3,12.6,30.14,WNW,297,0.0,10.0,93,0.00,,,0.00,Wunderground v.1.15,2013-02-04 06:05:00,
2013-02-04 01:10:00,14.3,12.4,30.15,WNW,297,0.0,10.0,92,0.00,,,0.00,Wunderground v.1.15,2013-02-04 06:10:00,
2013-02-04 01:15:00,14.1,12.2,30.14,WNW,297,0.0,10.0,92,0.00,,,0.00,Wunderground v.1.15,2013-02-04 06:15:00,
2013-02-04 01:25:00,14.1,12.2,30.14,WNW,296,0.0,10.0,92,0.00,,,0.00,Wunderground v.1.15,2013-02-04 06:25:00,
2013-02-04 01:35:00,13.8,11.9,30.14,WNW,297,0.0,10.0,92,0.00,,,0.00,Wunderground v.1.15,2013-02-04 06:35:00,
2013-02-04 01:40:00,13.7,11.8,30.14,WNW,297,0.0,10.0,92,0.00,,,0.00,Wunderground v.1.15,2013-02-04 06:40:00,
2013-02-04 01:45:00,13.6,11.7,30.14,WNW,297,0.0,10.0,92,0.00,,,0.00,Wunderground v.1.15,2013-02-04 06:45:00,
2013-02-04 01:55:00,13.6,11.7,30.13,WNW,296,0.0,10.0,92,0.00,,,0.00,Wunderground v.1.15,2013-02-04 06:55:00,
2013-02-04 02:05:00,13.4,11.5,30.13,WNW,295,0.0,10.0,92,0.00,,,0.00,Wunderground v.1.15,2013-02-04 07:05:00,
2013-02-04 02:15:00,13.4,11.5,30.14,WNW,295,0.0,10.0,92,0.00,,,0.00,Wunderground v.1.15,2013-02-04 07:15:00,
2013-02-04 02:25:00,13.3,11.4,30.13,WNW,295,0.0,10.0,92,0.00,,,0.00,Wunderground v.1.15,2013-02-04 07:25:00,
2013-02-04 02:30:00,13.3,11.4,30.13,WNW,295,0.0,10.0,92,0.00,,,0.00,Wunderground v.1.15,2013-02-04 07:30:00,
2013-02-04 02:40:00,13.3,11.4,30.14,WNW,297,0.0,10.0,92,0.00,,,0.00,Wunderground v.1.15,2013-02-04 07:40:00,
2013-02-04 02:45:00,13.3,11.4,30.14,WNW,297,0.0,10.0,92,0.00,,,0.00,Wunderground v.1.15,2013-02-04 07:45:00,
2013-02-04 02:50:00,13.3,11.4,30.14,WNW,296,0.0,10.0,92,0.00,,,0.00,Wunderground v.1.15,2013-02-04 07:50:00,
2013-02-04 03:00:00,13.3,11.4,30.14,WNW,296,0.0,10.0,92,0.00,,,0.00,Wunderground v.1.15,2013-02-04 08:00:00,
2013-02-04 03:10:00,13.1,11.2,30.13,WNW,297,0.0,10.0,92,0.00,,,0.00,Wunderground v.1.15,2013-02-04 08:10:00,
2013-02-04 03:15:00,13.2,11.3,30.13,WNW,297,0.0,10.0,92,0.00,,,0.00,Wunderground v.1.15,2013-02-04 08:15:00,
2013-02-04 03:25:00,13.2,11.3,30.13,WNW,295,0.0,10.0,92,0.00,,,0.00,Wunderground v.1.15,2013-02-04 08:25:00,
2013-02-04 03:35:00,13.0,11.1,30.13,WNW,297,0.0,10.0,92,0.00,,,0.00,Wunderground v.1.15,2013-02-04 08:35:00,
2013-02-04 03:45:00,13.7,12.1,30.13,WNW,297,0.0,10.0,93,0.00,,,0.00,Wunderground v.1.15,2013-02-04 08:45:00,
2013-02-04 03:50:00,14.4,12.7,30.12,NE,41,0.0,10.0,93,0.00,,,0.00,Wunderground v.1.15,2013-02-04 08:50:00,
2013-02-04 04:00:00,14.5,12.6,30.12,NE,41,0.0,10.0,92,0.00,,,0.00,Wunderground v.1.15,2013-02-04 09:00:00,
2013-02-04 04:05:00,14.1,12.0,30.12,NE,41,0.0,10.0,91,0.00,,,0.00,Wunderground v.1.15,2013-02-04 09:05:00,
2013-02-04 04:15:00,13.6,11.5,30.12,NE,41,0.0,10.0,91,0.00,,,0.00,Wunderground v.1.15,2013-02-04 09:15:00,
2013-02-04 04:25:00,13.2,11.1,30.12,NE,41,0.0,10.0,91,0.00,,,0.00,Wunderground v.1.15,2013-02-04 09:25:00,
2013-02-04 04:35:00,13.1,11.2,30.11,NE,41,0.0,10.0,92,0.00,,,0.00,Wunderground v.1.15,2013-02-04 09:35:00,
2013-02-04 04:45:00,13.5,11.6,30.11,NE,41,0.0,10.0,92,0.00,,,0.00,Wunderground v.1.15,2013-02-04 09:45:00,
2013-02-04 04:55:00,13.6,11.7,30.10,NE,41,0.0,10.0,92,0.00,,,0.00,Wunderground v.1.15,2013-02-04 09:55:00,
2013-02-04 05:05:00,13.7,11.8,30.11,NE,41,0.0,10.0,92,0.00,,,0.00,Wunderground v.1.15,2013-02-04 10:05:00,
2013-02-04 05:15:00,14.0,12.1,30.11,NE,41,0.0,10.0,92,0.00,,,0.00,Wunderground v.1.15,2013-02-04 10:15:00,
2013-02-04 05:20:00,14.2,12.3,30.12,NE,41,0.0,10.0,92,0.00,,,0.00,Wunderground v.1.15,2013-02-04 10:20:00,
2013-02-04 05:30:00,14.5,12.6,30.12,NE,41,0.0,10.0,92,0.00,,,0.00,Wunderground v.1.15,2013-02-04 10:30:00,
2013-02-04 05:40:00,14.4,12.3,30.12,NE,41,0.0,10.0,91,0.00,,,0.00,Wunderground v.1.15,2013-02-04 10:40:00,
2013-02-04 05:50:00,14.1,12.0,30.12,NE,41,0.0,10.0,91,0.00,,,0.00,Wunderground v.1.15,2013-02-04 10:50:00,
2013-02-04 06:00:00,14.0,12.1,30.12,NE,41,0.0,10.0,92,0.00,,,0.00,Wunderground v.1.15,2013-02-04 11:00:00,
2013-02-04 06:10:00,14.1,12.2,30.12,NE,41,0.0,10.0,92,0.00,,,0.00,Wunderground v.1.15,2013-02-04 11:10:00,
2013-02-04 06:15:00,14.5,12.6,30.11,NE,41,0.0,10.0,92,0.00,,,0.00,Wunderground v.1.15,2013-02-04 11:15:00,
2013-02-04 06:25:00,14.9,13.0,30.11,NE,41,0.0,10.0,92,0.00,,,0.00,Wunderground v.1.15,2013-02-04 11:25:00,
2013-02-04 06:30:00,15.2,13.5,30.10,NE,41,0.0,10.0,93,0.00,,,0.00,Wunderground v.1.15,2013-02-04 11:30:00,
2013-02-04 06:40:00,15.7,13.8,30.09,NE,41,0.0,10.0,92,0.00,,,0.00,Wunderground v.1.15,2013-02-04 11:40:00,
2013-02-04 06:50:00,16.0,14.1,30.09,NE,41,0.0,10.0,92,0.00,,,0.00,Wunderground v.1.15,2013-02-04 11:50:00,
2013-02-04 07:00:00,16.2,14.3,30.09,NE,41,0.0,10.0,92,0.00,,,0.00,Wunderground v.1.15,2013-02-04 12:00:00,
2013-02-04 07:10:00,16.5,14.6,30.08,NE,41,0.0,10.0,92,0.00,,,0.00,Wunderground v.1.15,2013-02-04 12:10:00,
2013-02-04 07:15:00,16.7,14.8,30.07,NE,41,0.0,10.0,92,0.00,,,0.00,Wunderground v.1.15,2013-02-04 12:15:00,
2013-02-04 07:25:00,17.1,15.2,30.08,NE,41,0.0,10.0,92,0.00,,,0.00,Wunderground v.1.15,2013-02-04 12:25:00,
2013-02-04 07:35:00,17.3,15.4,30.07,NE,41,0.0,10.0,92,0.00,,,0.00,Wunderground v.1.15,2013-02-04 12:35:00,
2013-02-04 07:45:00,17.5,15.6,30.06,NE,41,0.0,10.0,92,0.00,,,0.00,Wunderground v.1.15,2013-02-04 12:45:00,
2013-02-04 07:55:00,17.6,15.7,30.05,NE,41,0.0,10.0,92,0.00,,,0.00,Wunderground v.1.15,2013-02-04 12:55:00,
2013-02-04 08:00:00,17.8,15.9,30.05,NE,41,0.0,10.0,92,0.00,,,0.00,Wunderground v.1.15,2013-02-04 13:00:00,
2013-02-04 08:05:00,17.9,16.0,30.05,NE,41,0.0,10.0,92,0.00,,,0.00,Wunderground v.1.15,2013-02-04 13:05:00,
2013-02-04 08:15:00,18.2,16.5,30.05,NE,41,0.0,10.0,93,0.00,,,0.00,Wunderground v.1.15,2013-02-04 13:15:00,
2013-02-04 08:25:00,18.8,17.1,30.05,NE,41,0.0,10.0,93,0.00,,,0.00,Wunderground v.1.15,2013-02-04 13:25:00,
2013-02-04 08:30:00,19.1,17.4,30.04,SW,218,0.0,10.0,93,0.00,,,0.00,Wunderground v.1.15,2013-02-04 13:30:00,
2013-02-04 08:40:00,19.5,17.3,30.03,SSE,164,1.0,10.0,91,0.00,,,0.00,Wunderground v.1.15,2013-02-04 13:40:00,
2013-02-04 08:50:00,19.9,17.7,30.03,ESE,118,0.0,10.0,91,0.00,,,0.00,Wunderground v.1.15,2013-02-04 13:50:00,
2013-02-04 08:55:00,20.2,17.7,30.03,East,82,0.0,10.0,90,0.00,,,0.00,Wunderground v.1.15,2013-02-04 13:55:00,
2013-02-04 09:05:00,21.1,18.6,30.02,SSW,201,1.0,10.0,90,0.00,,,0.00,Wunderground v.1.15,2013-02-04 14:05:00,
2013-02-04 09:15:00,21.9,18.9,30.02,SSE,164,1.0,10.0,88,0.00,,,0.00,Wunderground v.1.15,2013-02-04 14:15:00,
2013-02-04 09:25:00,22.8,19.0,30.01,SE,143,0.0,10.0,85,0.00,,,0.00,Wunderground v.1.15,2013-02-04 14:25:00,
2013-02-04 09:35:00,23.4,19.3,30.00,WSW,248,1.0,10.0,84,0.00,,,0.00,Wunderground v.1.15,2013-02-04 14:35:00,
2013-02-04 09:40:00,23.6,19.2,30.00,NE,52,1.0,10.0,83,0.00,,,0.00,Wunderground v.1.15,2013-02-04 14:40:00,
2013-02-04 09:45:00,23.9,19.5,30.00,SE,138,1.0,10.0,83,0.00,,,0.00,Wunderground v.1.15,2013-02-04 14:45:00,
2013-02-04 09:55:00,24.6,19.9,30.00,SW,231,1.0,5.0,82,0.00,,,0.00,Wunderground v.1.15,2013-02-04 14:55:00,
2013-02-04 10:05:00,25.1,20.1,30.00,WSW,240,3.0,3.0,81,0.00,,,0.00,Wunderground v.1.15,2013-02-04 15:05:00,
2013-02-04 10:15:00,25.6,20.3,30.00,SE,141,4.0,10.0,80,0.00,,,0.00,Wunderground v.1.15,2013-02-04 15:15:00,
2013-02-04 10:20:00,25.8,20.2,29.99,South,186,4.0,4.0,79,0.00,,,0.00,Wunderground v.1.15,2013-02-04 15:20:00,
2013-02-04 10:30:00,26.6,20.7,29.98,South,181,3.0,3.0,78,0.00,,,0.00,Wunderground v.1.15,2013-02-04 15:30:00,
2013-02-04 10:40:00,27.3,21.3,29.98,SW,229,3.0,10.0,78,0.00,,,0.00,Wunderground v.1.15,2013-02-04 15:40:00,
2013-02-04 10:50:00,28.4,22.4,29.97,WSW,250,3.0,3.0,78,0.00,,,0.00,Wunderground v.1.15,2013-02-04 15:50:00,
2013-02-04 11:00:00,29.0,22.7,29.96,West,264,4.0,4.0,77,0.00,,,0.00,Wunderground v.1.15,2013-02-04 16:00:00,
2013-02-04 11:10:00,29.1,22.8,29.96,SSE,157,4.0,4.0,77,0.00,,,0.00,Wunderground v.1.15,2013-02-04 16:10:00,
2013-02-04 11:15:00,29.1,22.8,29.96,SW,228,4.0,5.0,77,0.00,,,0.00,Wunderground v.1.15,2013-02-04 16:15:00,
2013-02-04 11:20:00,29.1,22.8,29.96,SW,226,4.0,10.0,77,0.00,,,0.00,Wunderground v.1.15,2013-02-04 16:20:00,
2013-02-04 11:30:00,29.3,23.3,29.96,SSW,205,2.0,10.0,78,0.00,,,0.00,Wunderground v.1.15,2013-02-04 16:30:00,
2013-02-04 11:40:00,29.6,23.6,29.95,West,266,2.0,10.0,78,0.00,,,0.00,Wunderground v.1.15,2013-02-04 16:40:00,
2013-02-04 11:50:00,29.8,23.5,29.95,SW,219,2.0,10.0,77,0.00,,,0.00,Wunderground v.1.15,2013-02-04 16:50:00,
2013-02-04 12:00:00,30.1,23.8,29.94,South,180,2.0,10.0,77,0.00,,,0.00,Wunderground v.1.15,2013-02-04 17:00:00,
2013-02-04 12:10:00,30.7,24.3,29.94,South,174,1.0,1.0,77,0.00,,,0.00,Wunderground v.1.15,2013-02-04 17:10:00,
2013-02-04 12:15:00,31.3,24.6,29.93,SSE,152,0.0,10.0,76,0.00,,,0.00,Wunderground v.1.15,2013-02-04 17:15:00,
2013-02-04 12:25:00,32.5,25.1,29.93,South,170,0.0,10.0,74,0.00,,,0.00,Wunderground v.1.15,2013-02-04 17:25:00,
2013-02-04 12:35:00,33.8,25.7,29.92,SSW,195,0.0,10.0,72,0.00,,,0.00,Wunderground v.1.15,2013-02-04 17:35:00,
2013-02-04 12:45:00,35.0,25.9,29.91,SW,222,0.0,10.0,69,0.00,,,0.00,Wunderground v.1.15,2013-02-04 17:45:00,
2013-02-04 12:50:00,35.0,25.9,29.91,South,177,0.0,10.0,69,0.00,,,0.00,Wunderground v.1.15,2013-02-04 17:50:00,
2013-02-04 13:00:00,34.9,25.8,29.90,SSW,210,0.0,10.0,69,0.00,,,0.00,Wunderground v.1.15,2013-02-04 18:00:00,
2013-02-04 13:10:00,35.2,26.0,29.89,SSW,210,0.0,10.0,69,0.00,,,0.00,Wunderground v.1.15,2013-02-04 18:10:00,
2013-02-04 13:20:00,35.3,25.8,29.89,SSW,210,0.0,10.0,68,0.00,,,0.00,Wunderground v.1.15,2013-02-04 18:20:00,
2013-02-04 13:25:00,35.5,26.0,29.89,SSW,210,0.0,10.0,68,0.00,,,0.00,Wunderground v.1.15,2013-02-04 18:25:00,
2013-02-04 13:35:00,35.8,26.3,29.88,SSW,210,0.0,10.0,68,0.00,,,0.00,Wunderground v.1.15,2013-02-04 18:35:00,
2013-02-04 13:45:00,35.8,25.9,29.87,SSW,210,0.0,10.0,67,0.00,,,0.00,Wunderground v.1.15,2013-02-04 18:45:00,
2013-02-04 13:55:00,35.7,26.2,29.87,SSW,210,0.0,10.0,68,0.00,,,0.00,Wunderground v.1.15,2013-02-04 18:55:00,
2013-02-04 14:05:00,36.0,26.8,29.88,SSW,210,0.0,10.0,69,0.00,,,0.00,Wunderground v.1.15,2013-02-04 19:05:00,
2013-02-04 14:15:00,35.9,27.4,29.87,SSE,159,0.0,10.0,71,0.00,,,0.00,Wunderground v.1.15,2013-02-04 19:15:00,
2013-02-04 14:25:00,36.0,27.5,29.87,SSE,160,0.0,10.0,71,0.00,,,0.00,Wunderground v.1.15,2013-02-04 19:25:00,
2013-02-04 14:35:00,36.0,27.8,29.89,SSE,159,0.0,10.0,72,0.00,,,0.00,Wunderground v.1.15,2013-02-04 19:35:00,
2013-02-04 14:45:00,35.9,29.1,29.88,SSE,160,0.0,10.0,76,0.00,,,0.00,Wunderground v.1.15,2013-02-04 19:45:00,
2013-02-04 14:55:00,35.7,29.5,29.87,SSE,159,0.0,10.0,78,0.00,,,0.00,Wunderground v.1.15,2013-02-04 19:55:00,
2013-02-04 15:05:00,35.1,29.2,29.88,SSE,158,0.0,10.0,79,0.00,,,0.00,Wunderground v.1.15,2013-02-04 20:05:00,
2013-02-04 15:15:00,34.4,30.1,29.88,ESE,114,0.0,10.0,84,0.00,,,0.00,Wunderground v.1.15,2013-02-04 20:15:00,
2013-02-04 15:25:00,34.7,30.4,29.88,ESE,115,0.0,10.0,84,0.00,,,0.00,Wunderground v.1.15,2013-02-04 20:25:00,
2013-02-04 15:35:00,35.4,30.8,29.88,ESE,115,0.0,10.0,83,0.00,,,0.00,Wunderground v.1.15,2013-02-04 20:35:00,
2013-02-04 15:45:00,35.5,31.1,29.88,ESE,116,0.0,10.0,84,0.00,,,0.00,Wunderground v.1.15,2013-02-04 20:45:00,
2013-02-04 15:55:00,35.2,31.1,29.88,ESE,115,0.0,10.0,85,0.00,,,0.00,Wunderground v.1.15,2013-02-04 20:55:00,
2013-02-04 16:00:00,34.6,31.1,29.88,ESE,115,0.0,10.0,87,0.00,,,0.00,Wunderground v.1.15,2013-02-04 21:00:00,
2013-02-04 16:10:00,34.0,31.1,29.87,ESE,115,0.0,10.0,89,0.00,,,0.00,Wunderground v.1.15,2013-02-04 21:10:00,
2013-02-04 16:15:00,33.9,31.3,29.88,ESE,115,0.0,10.0,90,0.00,,,0.00,Wunderground v.1.15,2013-02-04 21:15:00,
2013-02-04 16:25:00,33.8,31.5,29.88,ESE,115,0.0,10.0,91,0.00,,,0.00,Wunderground v.1.15,2013-02-04 21:25:00,
2013-02-04 16:35:00,33.8,31.5,29.87,ESE,115,0.0,10.0,91,0.00,,,0.00,Wunderground v.1.15,2013-02-04 21:35:00,
2013-02-04 16:45:00,33.8,31.5,29.86,ESE,115,0.0,10.0,91,0.00,,,0.01,Wunderground v.1.15,2013-02-04 21:45:00,
2013-02-04 16:55:00,33.5,31.4,29.86,ESE,114,0.0,10.0,92,0.00,,,0.01,Wunderground v.1.15,2013-02-04 21:55:00,
2013-02-04 17:00:00,33.3,31.2,29.86,ESE,115,0.0,10.0,92,0.00,,,0.01,Wunderground v.1.15,2013-02-04 22:00:00,
2013-02-04 17:10:00,33.2,31.4,29.85,ESE,115,0.0,10.0,93,0.00,,,0.01,Wunderground v.1.15,2013-02-04 22:10:00,
2013-02-04 17:20:00,33.2,31.7,29.85,West,264,0.0,10.0,94,0.00,,,0.01,Wunderground v.1.15,2013-02-04 22:20:00,
2013-02-04 17:30:00,33.2,31.7,29.85,NW,324,0.0,10.0,94,0.00,,,0.01,Wunderground v.1.15,2013-02-04 22:30:00,
2013-02-04 17:40:00,33.5,32.2,29.85,West,277,1.0,1.0,95,0.00,,,0.01,Wunderground v.1.15,2013-02-04 22:40:00,
2013-02-04 17:50:00,33.6,32.1,29.85,SW,232,1.0,1.0,94,0.00,,,0.01,Wunderground v.1.15,2013-02-04 22:50:00,
2013-02-04 18:00:00,33.4,31.9,29.85,SW,231,0.0,10.0,94,0.00,,,0.01,Wunderground v.1.15,2013-02-04 23:00:00,
2013-02-04 18:10:00,33.3,32.0,29.85,NNE,33,0.0,10.0,95,0.00,,,0.01,Wunderground v.1.15,2013-02-04 23:10:00,
2013-02-04 18:20:00,33.2,31.9,29.85,NNE,32,0.0,10.0,95,0.00,,,0.01,Wunderground v.1.15,2013-02-04 23:20:00,
2013-02-04 18:25:00,33.1,31.8,29.86,NNE,33,0.0,10.0,95,0.00,,,0.01,Wunderground v.1.15,2013-02-04 23:25:00,
2013-02-04 18:35:00,32.9,31.6,29.85,NNE,32,0.0,10.0,95,0.00,,,0.02,Wunderground v.1.15,2013-02-04 23:35:00,
2013-02-04 18:45:00,32.9,31.6,29.86,NNE,33,0.0,10.0,95,0.00,,,0.02,Wunderground v.1.15,2013-02-04 23:45:00,
2013-02-04 18:55:00,32.9,31.6,29.86,NNE,33,0.0,10.0,95,0.00,,,0.02,Wunderground v.1.15,2013-02-04 23:55:00,
2013-02-04 19:05:00,33.0,32.0,29.86,NNE,32,0.0,10.0,96,0.00,,,0.02,Wunderground v.1.15,2013-02-05 00:05:00,
2013-02-04 19:15:00,32.9,31.9,29.87,NNE,33,0.0,10.0,96,0.00,,,0.03,Wunderground v.1.15,2013-02-05 00:15:00,
2013-02-04 19:25:00,32.9,31.9,29.87,NNE,33,0.0,10.0,96,0.00,,,0.03,Wunderground v.1.15,2013-02-05 00:25:00,
2013-02-04 19:35:00,32.8,31.8,29.87,NNE,32,0.0,10.0,96,0.00,,,0.03,Wunderground v.1.15,2013-02-05 00:35:00,
2013-02-04 19:45:00,32.8,31.8,29.87,NNE,33,0.0,10.0,96,0.00,,,0.03,Wunderground v.1.15,2013-02-05 00:45:00,
2013-02-04 19:55:00,32.8,31.8,29.87,NNE,33,0.0,10.0,96,0.00,,,0.03,Wunderground v.1.15,2013-02-05 00:55:00,
2013-02-04 20:05:00,32.8,31.8,29.86,NNE,32,0.0,10.0,96,0.00,,,0.03,Wunderground v.1.15,2013-02-05 01:05:00,
2013-02-04 20:10:00,32.8,31.8,29.86,NNE,32,0.0,10.0,96,0.00,,,0.03,Wunderground v.1.15,2013-02-05 01:10:00,
2013-02-04 20:20:00,32.8,31.8,29.86,NNE,32,0.0,10.0,96,0.00,,,0.03,Wunderground v.1.15,2013-02-05 01:20:00,
2013-02-04 20:30:00,32.7,31.7,29.87,NNE,33,0.0,10.0,96,0.00,,,0.04,Wunderground v.1.15,2013-02-05 01:30:00,
2013-02-04 20:40:00,32.8,31.8,29.87,NNE,32,0.0,10.0,96,0.00,,,0.04,Wunderground v.1.15,2013-02-05 01:40:00,
2013-02-04 20:50:00,32.8,31.8,29.87,NNE,32,0.0,10.0,96,0.00,,,0.04,Wunderground v.1.15,2013-02-05 01:50:00,
2013-02-04 21:00:00,32.8,31.8,29.87,NNE,32,0.0,10.0,96,0.00,,,0.04,Wunderground v.1.15,2013-02-05 02:00:00,
2013-02-04 21:10:00,32.7,31.7,29.88,NNE,32,0.0,10.0,96,0.00,,,0.04,Wunderground v.1.15,2013-02-05 02:10:00,
2013-02-04 21:20:00,32.7,31.7,29.88,NNE,32,0.0,10.0,96,0.00,,,0.04,Wunderground v.1.15,2013-02-05 02:20:00,
2013-02-04 21:30:00,32.6,31.6,29.88,NNE,32,0.0,10.0,96,0.00,,,0.04,Wunderground v.1.15,2013-02-05 02:30:00,
2013-02-04 21:40:00,32.6,31.8,29.88,NNE,33,0.0,10.0,97,0.00,,,0.04,Wunderground v.1.15,2013-02-05 02:40:00,
2013-02-04 21:50:00,32.6,31.8,29.89,NNE,32,0.0,10.0,97,0.00,,,0.04,Wunderground v.1.15,2013-02-05 02:50:00,
2013-02-04 22:00:00,32.7,31.9,29.89,NNE,33,0.0,10.0,97,0.00,,,0.04,Wunderground v.1.15,2013-02-05 03:00:00,
2013-02-04 22:10:00,32.7,31.9,29.90,NNE,32,0.0,10.0,97,0.00,,,0.04,Wunderground v.1.15,2013-02-05 03:10:00,
2013-02-04 22:20:00,32.7,31.9,29.90,NNE,32,0.0,10.0,97,0.00,,,0.04,Wunderground v.1.15,2013-02-05 03:20:00,
2013-02-04 22:30:00,32.7,31.9,29.90,NNE,32,0.0,10.0,97,0.00,,,0.04,Wunderground v.1.15,2013-02-05 03:30:00,
2013-02-04 22:40:00,32.7,31.9,29.90,NNE,33,0.0,10.0,97,0.00,,,0.04,Wunderground v.1.15,2013-02-05 03:40:00,
2013-02-04 22:50:00,32.7,31.9,29.89,NNE,33,0.0,10.0,97,0.00,,,0.05,Wunderground v.1.15,2013-02-05 03:50:00,
2013-02-04 23:00:00,32.7,31.9,29.89,NNE,33,0.0,10.0,97,0.00,,,0.05,Wunderground v.1.15,2013-02-05 04:00:00,
2013-02-04 23:10:00,32.7,31.9,29.89,NNE,32,0.0,10.0,97,0.00,,,0.05,Wunderground v.1.15,2013-02-05 04:10:00,
2013-02-04 23:15:00,32.7,31.9,29.89,NNE,32,0.0,10.0,97,0.00,,,0.05,Wunderground v.1.15,2013-02-05 04:15:00,
2013-02-04 23:25:00,32.7,31.9,29.88,NNE,32,0.0,10.0,97,0.00,,,0.05,Wunderground v.1.15,2013-02-05 04:25:00,
2013-02-04 23:35:00,32.7,31.9,29.89,NNE,33,0.0,10.0,97,0.00,,,0.05,Wunderground v.1.15,2013-02-05 04:35:00,
2013-02-04 23:45:00,32.7,31.9,29.88,NNE,33,0.0,10.0,97,0.00,,,0.05,Wunderground v.1.15,2013-02-05 04:45:00,
2013-02-04 23:50:00,32.7,31.9,29.88,NNE,32,0.0,10.0,97,0.00,,,0.05,Wunderground v.1.15,2013-02-05 04:50:00,